When you browse on this site, cookies collect data to enhance your experience and personalize the content and advertising you see.
Visit our Privacy Policy to learn more. By continuing to use the site, you agree to this use of cookies and data.
  • In Hungary
  • List of Countries
  • For 7 days
  • Water Temperature
  • Weather Map
  • News
  • Weather Widgets
  • user-avatar
    Login

    Hourly Weather Studenyy

    Today, 21 October, Monday

    Time Temperature Precipitation Wind Pressure Humidity
    00:00 +3°C° 0 mm 3 mps 768 mmHg 89%
    01:00 +3°C° 0 mm 3 mps 768 mmHg 90%
    02:00 +3°C° 0 mm 3 mps 768 mmHg 91%
    03:00 +3°C° 0 mm 3 mps 768 mmHg 88%
    04:00 +4°C° 0 mm 3 mps 768 mmHg 87%
    05:00 +4°C° 0 mm 3 mps 767 mmHg 86%
    06:00 +5°C° 0 mm 4 mps 767 mmHg 84%
    07:00 +5°C° 0.1 mm 4 mps 767 mmHg 84%
    08:00 +6°C° 0.1 mm 4 mps 767 mmHg 84%
    09:00 +6°C° 0.1 mm 4 mps 767 mmHg 84%
    10:00 +7°C° 0.2 mm 5 mps 767 mmHg 81%
    11:00 +8°C° 0.2 mm 5 mps 766 mmHg 79%
    12:00 +9°C° 0.2 mm 6 mps 766 mmHg 76%
    13:00 +10°C° 0 mm 6 mps 766 mmHg 75%
    14:00 +10°C° 0 mm 6 mps 766 mmHg 74%
    15:00 +11°C° 0 mm 6 mps 765 mmHg 73%
    16:00 +10°C° 0 mm 6 mps 765 mmHg 76%
    17:00 +9°C° 0 mm 6 mps 764 mmHg 79%
    18:00 +9°C° 0 mm 5 mps 764 mmHg 82%
    19:00 +9°C° 0 mm 6 mps 764 mmHg 81%
    20:00 +9°C° 0 mm 6 mps 763 mmHg 81%
    21:00 +9°C° 0 mm 6 mps 763 mmHg 80%
    22:00 +9°C° 0 mm 6 mps 762 mmHg 80%
    23:00 +9°C° 0 mm 6 mps 761 mmHg 79%

    Tomorrow, 22 October, Tuesday

    Time Temperature Precipitation Wind Pressure Humidity
    00:00 +9°C° 0 mm 7 mps 761 mmHg 79%
    01:00 +9°C° 0 mm 6 mps 760 mmHg 79%
    02:00 +9°C° 0 mm 6 mps 760 mmHg 79%
    03:00 +9°C° 0 mm 6 mps 760 mmHg 79%
    04:00 +9°C° 0.8 mm 6 mps 759 mmHg 83%
    05:00 +9°C° 0.8 mm 6 mps 759 mmHg 87%
    06:00 +9°C° 0.8 mm 5 mps 759 mmHg 91%
    07:00 +9°C° 0.9 mm 5 mps 759 mmHg 92%
    08:00 +10°C° 0.9 mm 4 mps 760 mmHg 93%
    09:00 +10°C° 0.9 mm 3 mps 760 mmHg 94%
    10:00 +11°C° 0 mm 3 mps 760 mmHg 87%
    11:00 +12°C° 0 mm 3 mps 760 mmHg 79%
    12:00 +14°C° 0 mm 2 mps 760 mmHg 72%
    13:00 +13°C° 0 mm 3 mps 760 mmHg 72%
    14:00 +12°C° 0 mm 3 mps 760 mmHg 71%
    15:00 +12°C° 0 mm 4 mps 761 mmHg 71%
    16:00 +11°C° 0 mm 3 mps 761 mmHg 74%
    17:00 +10°C° 0 mm 3 mps 761 mmHg 77%
    18:00 +9°C° 0 mm 3 mps 762 mmHg 81%
    19:00 +8°C° 0 mm 3 mps 762 mmHg 82%
    20:00 +8°C° 0 mm 2 mps 762 mmHg 83%
    21:00 +7°C° 0 mm 2 mps 762 mmHg 84%
    22:00 +7°C° 0 mm 2 mps 762 mmHg 85%
    23:00 +6°C° 0 mm 2 mps 762 mmHg 87%

    Day after tomorrow, 23 October, Wednesday

    Time Temperature Precipitation Wind Pressure Humidity
    00:00 +5°C° 0 mm 2 mps 762 mmHg 89%
    01:00 +6°C° 0 mm 1 mps 762 mmHg 90%
    02:00 +6°C° 0 mm 1 mps 763 mmHg 90%
    03:00 +5°C° 0 mm 1 mps 763 mmHg 91%
    04:00 +5°C° 0 mm 1 mps 763 mmHg 91%
    05:00 +5°C° 0 mm 1 mps 763 mmHg 92%
    06:00 +4°C° 0 mm 2 mps 763 mmHg 92%
    07:00 +6°C° 0 mm 1 mps 763 mmHg 87%
    08:00 +7°C° 0 mm 1 mps 763 mmHg 82%
    09:00 +7°C° 0 mm 1 mps 762 mmHg 78%
    10:00 +7°C° 0 mm 2 mps 762 mmHg 76%
    11:00 +8°C° 0 mm 3 mps 762 mmHg 74%
    12:00 +8°C° 0 mm 4 mps 761 mmHg 72%
    13:00 +10°C° 0 mm 4 mps 761 mmHg 72%
    14:00 +10°C° 0 mm 4 mps 760 mmHg 72%
    15:00 +10°C° 0 mm 5 mps 760 mmHg 72%
    16:00 +10°C° 0 mm 5 mps 759 mmHg 74%
    17:00 +9°C° 0 mm 5 mps 759 mmHg 76%
    18:00 +9°C° 0 mm 5 mps 759 mmHg 79%
    19:00 +10°C° 0 mm 5 mps 758 mmHg 80%
    20:00 +10°C° 0 mm 5 mps 758 mmHg 82%
    21:00 +12°C° 0 mm 5 mps 758 mmHg 83%
    22:00 +12°C° 0 mm 5 mps 758 mmHg 85%
    23:00 +12°C° 0 mm 5 mps 758 mmHg 86%

    24 October, Thursday

    Time Temperature Precipitation Wind Pressure Humidity
    00:00 +12°C° 0 mm 5 mps 757 mmHg 87%
    01:00 +10°C° 0 mm 5 mps 758 mmHg 89%
    02:00 +11°C° 0 mm 4 mps 758 mmHg 91%
    03:00 +11°C° 0 mm 4 mps 758 mmHg 93%
    04:00 +11°C° 0 mm 3 mps 758 mmHg 94%
    05:00 +11°C° 0 mm 3 mps 758 mmHg 95%
    06:00 +11°C° 0 mm 3 mps 759 mmHg 96%
    07:00 +11°C° 0 mm 3 mps 759 mmHg 91%
    08:00 +12°C° 0 mm 3 mps 759 mmHg 87%
    09:00 +12°C° 0 mm 3 mps 760 mmHg 83%
    10:00 +13°C° 0 mm 3 mps 760 mmHg 78%
    11:00 +13°C° 0 mm 3 mps 760 mmHg 72%
    12:00 +13°C° 0 mm 3 mps 760 mmHg 67%
    13:00 +13°C° 0 mm 3 mps 761 mmHg 68%
    14:00 +12°C° 0 mm 3 mps 761 mmHg 69%
    15:00 +12°C° 0 mm 3 mps 761 mmHg 71%
    16:00 +12°C° 0 mm 3 mps 761 mmHg 72%
    17:00 +12°C° 0 mm 2 mps 762 mmHg 74%
    18:00 +12°C° 0 mm 2 mps 762 mmHg 75%
    19:00 +10°C° 0 mm 2 mps 762 mmHg 75%
    20:00 +11°C° 0 mm 1 mps 762 mmHg 74%
    21:00 +11°C° 0 mm 1 mps 763 mmHg 74%
    22:00 +11°C° 0 mm 1 mps 763 mmHg 75%
    23:00 +11°C° 0 mm 1 mps 763 mmHg 76%

    25 October, Friday

    Time Temperature Precipitation Wind Pressure Humidity
    00:00 +10°C° 0 mm 1 mps 763 mmHg 77%
    01:00 +10°C° 0 mm 1 mps 763 mmHg 79%
    02:00 +9°C° 0 mm 1 mps 763 mmHg 81%
    03:00 +8°C° 0 mm 2 mps 763 mmHg 83%
    04:00 +8°C° 0 mm 1 mps 763 mmHg 84%
    05:00 +8°C° 0 mm 1 mps 763 mmHg 85%
    06:00 +8°C° 0 mm 1 mps 763 mmHg 86%
    07:00 +7°C° 0 mm 2 mps 763 mmHg 84%
    08:00 +8°C° 0 mm 2 mps 763 mmHg 82%
    09:00 +9°C° 0 mm 3 mps 763 mmHg 79%
    10:00 +10°C° 0 mm 3 mps 763 mmHg 76%
    11:00 +11°C° 0 mm 3 mps 763 mmHg 72%
    12:00 +12°C° 0 mm 3 mps 763 mmHg 68%
    13:00 +11°C° 0 mm 3 mps 763 mmHg 68%
    14:00 +11°C° 0 mm 3 mps 763 mmHg 68%
    15:00 +11°C° 0 mm 3 mps 763 mmHg 68%
    16:00 +10°C° 0 mm 3 mps 763 mmHg 73%
    17:00 +9°C° 0 mm 3 mps 763 mmHg 78%
    18:00 +9°C° 0 mm 2 mps 763 mmHg 83%
    19:00 +8°C° 0 mm 2 mps 763 mmHg 85%
    20:00 +8°C° 0 mm 2 mps 763 mmHg 88%
    21:00 +8°C° 0 mm 2 mps 763 mmHg 90%
    22:00 +8°C° 0 mm 2 mps 763 mmHg 91%
    23:00 +7°C° 0 mm 2 mps 763 mmHg 92%

    26 October, Saturday

    Time Temperature Precipitation Wind Pressure Humidity
    00:00 +7°C° 0 mm 2 mps 763 mmHg 93%
    01:00 +7°C° 0 mm 2 mps 763 mmHg 93%
    02:00 +7°C° 0 mm 2 mps 763 mmHg 93%
    03:00 +7°C° 0 mm 2 mps 763 mmHg 93%
    04:00 +6°C° 0 mm 2 mps 763 mmHg 92%
    05:00 +6°C° 0 mm 2 mps 763 mmHg 92%
    06:00 +5°C° 0 mm 3 mps 762 mmHg 92%
    07:00 +7°C° 0 mm 3 mps 762 mmHg 88%
    08:00 +7°C° 0 mm 4 mps 762 mmHg 84%
    09:00 +8°C° 0 mm 5 mps 762 mmHg 79%
    10:00 +9°C° 0 mm 5 mps 761 mmHg 75%
    11:00 +10°C° 0 mm 6 mps 761 mmHg 71%
    12:00 +11°C° 0 mm 7 mps 760 mmHg 66%
    13:00 +12°C° 0 mm 7 mps 759 mmHg 67%
    14:00 +12°C° 0 mm 7 mps 759 mmHg 69%
    15:00 +12°C° 0 mm 7 mps 758 mmHg 70%
    16:00 +12°C° 0 mm 7 mps 758 mmHg 73%
    17:00 +12°C° 0 mm 7 mps 757 mmHg 76%
    18:00 +13°C° 0 mm 6 mps 757 mmHg 79%
    19:00 +13°C° 0 mm 6 mps 757 mmHg 79%
    20:00 +13°C° 0 mm 6 mps 757 mmHg 78%
    21:00 +13°C° 0 mm 6 mps 757 mmHg 78%
    22:00 +11°C° 0 mm 6 mps 757 mmHg 77%
    23:00 +10°C° 0 mm 5 mps 757 mmHg 77%

    27 October, Sunday

    Time Temperature Precipitation Wind Pressure Humidity
    00:00 +10°C° 0 mm 5 mps 757 mmHg 76%
    01:00 +9°C° 0 mm 5 mps 758 mmHg 79%
    02:00 +10°C° 0 mm 4 mps 758 mmHg 82%
    03:00 +8°C° 0 mm 4 mps 759 mmHg 85%
    04:00 +7°C° 0 mm 4 mps 759 mmHg 88%
    05:00 +8°C° 0 mm 3 mps 759 mmHg 91%
    06:00 +7°C° 0 mm 3 mps 759 mmHg 93%
    07:00 +8°C° 0 mm 3 mps 760 mmHg 90%
    08:00 +9°C° 0 mm 3 mps 760 mmHg 86%
    09:00 +8°C° 0 mm 4 mps 760 mmHg 82%
    10:00 +10°C° 0 mm 3 mps 760 mmHg 77%
    11:00 +11°C° 0 mm 3 mps 760 mmHg 73%
    12:00 +12°C° 0 mm 3 mps 760 mmHg 68%
    13:00 +12°C° 0 mm 3 mps 760 mmHg 68%
    14:00 +12°C° 0 mm 3 mps 760 mmHg 67%
    15:00 +13°C° 0 mm 2 mps 760 mmHg 67%
    16:00 +12°C° 0 mm 2 mps 760 mmHg 70%
    17:00 +10°C° 0 mm 3 mps 759 mmHg 73%
    18:00 +9°C° 0 mm 3 mps 759 mmHg 77%
    19:00 +9°C° 0 mm 3 mps 759 mmHg 78%
    20:00 +9°C° 0 mm 3 mps 759 mmHg 80%
    21:00 +9°C° 0 mm 3 mps 758 mmHg 82%
    22:00 +8°C° 0 mm 4 mps 758 mmHg 85%
    23:00 +7°C° 0 mm 4 mps 757 mmHg 87%
    Show more